User: anonymous   Login
Location: PACMO
(41.3967°N, 90.3760°W)
Time: 06:06:44
(UTC-05:00)
Language:

BREEZE-M DEB (TANK) - Orbit

View from above orbital plane
View from above orbital plane
View from above satellite
View from above satellite

Ground track
Ground track

The orbit data is extracted from the following two-line orbital elements,

1 31863U 07032B   17149.77156367 -.00000162 +00000-0 -31881-4 0  9993
2 31863 045.9695 348.2339 4977594 356.8630 000.9323 05.52097117198517
Epoch (UTC): 29 May 2017 18:31:03
Eccentricity: 0.4977594
inclination: 45.9695°
perigee height: 413 km
apogee height: 13875 km
right ascension of ascending node: 348.2339°
argument of perigee: 356.8630°
revolutions per day: 5.52097117
mean anomaly at epoch: 0.9323°
orbit number at epoch: 19851

The dashed part of the orbit path shows where the satellite is in the earth's shadow,  

DLR